Temp
1 1 1 1 1 0 0 0 -1 1 2 1 2 2 2 4 5 6 4 5 5 5 6 6 5 5 8 10 9 7 7 4 3 7 9 10 9 8 8 6 7 7 3 6
1 1 1 1 1 0 0 1 2 1 1 1 1 2 3 4 3 4 4 4 4 4 3 3 3 6 9 10 8 7 7 4 5 6 7 8 8 7 7 6 5 6 5 3
1 1 1 1 1 0 0 1 -1 0 0 1 1 1 2 2 4 4 4 4 5 4 1 3 1 5 7 8 8 9 9 6 6 5 5 5 7 6 7 6 6 6 5 5
1 0 1 1 0 0 0 1 0 1 1 1 1 1 2 2 2 4 4 2 3 3 -0 2 4 4 6 7 8 7 5 5 4 6 7 6 4 4 5 5 5 5 5 4
0 1 1 1 0 0 -0 0 1 1 1 2 1 2 2 2 3 3 2 3 4 3 2 3 4 4 4 5 6 6 4 3 3 2 5 5 4 5 4 4 4 4 4 4
-0 0 1 0 0 -0 -0 0 0 2 2 2 1 2 2 3 4 4 4 4 4 2 3 5 5 5 6 6 6 3 4 4 4 5 5 5 5 4 4 5 5 5 4 5
0 0 0 0 0 -0 -0 -0 -0 0 2 1 2 3 3 3 3 3 4 4 3 3 4 5 5 4 5 6 5 5 4 4 4 5 4 5 5 4 4 4 5 4 2 -1
-0 -0 -0 0 -0 -0 -0 -0 -0 -0 1 1 2 2 2 2 2 2 3 3 2 3 2 2 2 3 3 3 5 5 5 4 5 5 5 5 7 4 4 4 5 3 2 -2
-0 -0 -0 -0 -0 -0 -1 -1 -0 0 0 0 2 2 2 2 2 2 3 3 3 2 2 3 3 5 4 4 6 6 6 5 4 4 5 5 7 5 5 5 4 1 0 -2
-0 -0 -0 -0 -0 -0 -1 -1 -0 -0 -0 1 1 1 2 2 2 2 2 3 2 2 2 3 2 4 6 4 5 5 4 4 5 4 5 5 6 5 6 5 4 1 1 -2
0 -0 -0 -0 -0 -0 -1 -1 -1 -1 -0 0 1 2 1 2 2 2 2 2 2 2 3 3 3 3 4 4 6 5 5 4 3 4 5 5 5 4 4 3 2 2 1 -0
-0 -0 -1 -0 -0 -1 -1 -1 -0 -1 -1 -0 1 1 2 2 2 2 2 3 2 2 2 2 3 3 3 4 5 6 5 5 4 5 4 2 3 3 3 4 4 2 2 -0
-1 -1 -1 -1 -1 -1 -1 -1 -1 -1 -0 -0 0 1 2 2 1 2 2 3 4 4 5 3 3 5 2 3 2 4 4 4 3 3 2 1 3 3 4 4 4 4 3 2
-1 -1 -1 -1 -1 -1 -1 -1 -1 -1 -1 0 1 2 2 2 2 2 2 3 4 4 5 4 3 4 4 3 4 4 4 4 2 1 0 1 2 3 3 3 3 3 2 2
-1 -1 -1 -1 -1 -1 -1 -1 -1 -1 -1 -0 1 1 2 2 2 2 2 3 4 4 2 2 2 3 3 2 2 3 3 2 1 1 3 3 2 3 3 3 3 2 2 -0
-1 -1 -1 -1 -1 -1 -1 -1 -1 -0 -1 -0 0 0 1 3 2 2 2 2 2 2 1 1 3 4 4 1 2 4 4 4 5 4 3 3 3 2 2 3 2 2 1 1
-1 -1 -2 -1 -1 -1 -1 -0 0 1 -0 -0 -0 0 2 2 2 2 1 1 1 2 4 3 3 3 4 -1 2 3 4 4 5 4 3 1 1 1 1 2 1 0 -0 -1
-1 -2 -2 -1 -1 -1 -1 -0 0 0 0 -0 -0 0 2 2 3 3 3 3 2 3 3 3 2 3 2 2 2 2 3 3 2 2 3 3 2 1 1 1 0 -0 -1 -2
-2 -2 -2 -2 -1 -1 -0 -0 1 0 1 -0 -0 0 0 3 3 3 3 3 0 3 0 1 2 1 2 3 2 2 2 3 2 2 2 2 2 1 0 0 -1 -0 -2 -2
-2 -2 -2 -1 -1 -0 -0 0 0 0 1 2 0 1 0 2 1 0 2 2 -1 1 -0 2 -1 -1 4 5 4 4 3 3 2 2 -0 -0 -0 0 -0 -0 -0 -1 -1 -2
-2 -1 -1 -0 -1 0 1 1 1 1 1 2 1 2 0 2 -0 -1 0 -1 -2 0 1 0 -1 1 1 4 4 4 4 3 2 2 2 2 2 1 -0 -1 -1 -1 -2 -2
-2 -1 -0 1 2 3 0 -2 -1 1 1 0 -0 1 2 2 3 0 -0 -0 -2 1 -2 -2 -2 -1 3 4 4 4 4 3 2 2 2 1 1 0 -0 -1 -1 -2 -2 -2
-1 -1 1 3 -0 -2 -2 -2 -1 -1 -0 1 1 -1 2 2 3 -1 -1 -1 -1 -2 -3 -1 -2 0 3 3 4 3 3 3 2 2 2 1 1 0 -0 -1 -1 -2 -2 -3
2 1 -3 -4 -5 -3 -1 -1 -0 -1 -0 2 3 -0 -0 -0 -1 -3 -2 -3 -2 -4 -2 0 -3 1 2 3 4 4 3 3 3 2 2 1 1 0 -0 -1 -1 -2 -2 -3
0 -1 -3 -3 -2 -2 -2 -2 -1 -1 0 3 2 -0 0 -4 -3 -4 -3 -2 -3 -2 -1 -3 -2 0 2 3 3 4 3 3 2 2 2 1 1 0 -0 -1 -2 -2 -3 -3
-1 -2 -3 -3 -2 -2 -2 -1 -1 0 2 3 3 -2 -2 -2 -3 -1 -1 -0 -2 -2 -2 -3 -2 -0 1 2 3 3 2 2 2 1 1 1 0 -0 -1 -1 -2 -2 -3 -3
-2 -2 -2 -3 -3 -3 -2 -1 0 2 3 -3 -1 -2 -0 -2 -2 -1 -0 -2 -2 -3 -3 -3 -2 -1 0 1 2 2 1 1 1 0 0 -0 -1 -1 -1 -2 -2 -3 -3 -4
Height
1470 1473 1478 1481 1486 1490 1494 1496 1500 1498 1504 1510 1506 1504 1503 1503 1501 1502 1504 1502 1500 1499 1496 1497 1501 1496 1487 1483 1484 1490 1488 1497 1506 1487 1480 1478 1480 1487 1490 1497 1491 1491 1505 1485
1465 1469 1474 1478 1482 1486 1489 1493 1495 1497 1503 1500 1497 1498 1498 1502 1503 1504 1502 1501 1497 1497 1501 1507 1497 1490 1484 1483 1484 1485 1485 1498 1500 1489 1486 1479 1480 1482 1484 1491 1496 1489 1497 1495
1459 1464 1469 1474 1478 1482 1489 1490 1494 1495 1496 1494 1494 1499 1493 1498 1497 1498 1502 1498 1496 1497 1500 1497 1497 1488 1483 1480 1481 1478 1478 1485 1486 1496 1491 1487 1483 1485 1483 1488 1489 1483 1484 1479
1454 1459 1465 1470 1474 1479 1484 1484 1482 1482 1484 1486 1491 1492 1487 1491 1494 1492 1494 1492 1496 1496 1503 1495 1489 1488 1485 1480 1478 1480 1481 1486 1487 1482 1479 1481 1485 1485 1487 1489 1484 1484 1478 1480
1448 1453 1459 1465 1468 1474 1478 1478 1479 1478 1479 1479 1485 1486 1481 1483 1490 1489 1488 1487 1487 1492 1493 1490 1485 1486 1486 1483 1478 1477 1481 1488 1489 1492 1480 1480 1482 1479 1483 1482 1482 1480 1477 1477
1441 1447 1453 1458 1463 1467 1468 1472 1474 1476 1473 1475 1477 1473 1474 1472 1482 1479 1478 1479 1483 1488 1476 1478 1480 1481 1480 1480 1479 1484 1483 1483 1485 1476 1476 1478 1476 1472 1473 1469 1467 1464 1472 1464
1435 1441 1447 1452 1457 1461 1464 1467 1470 1471 1464 1467 1466 1466 1469 1469 1470 1466 1469 1472 1477 1455 1476 1477 1476 1475 1471 1472 1471 1473 1477 1482 1483 1476 1479 1475 1463 1462 1462 1463 1459 1461 1463 1467
1430 1435 1441 1446 1452 1456 1460 1464 1467 1465 1459 1460 1463 1465 1465 1464 1464 1462 1461 1460 1457 1469 1473 1474 1474 1470 1471 1467 1465 1468 1467 1474 1477 1472 1471 1464 1455 1458 1462 1461 1453 1452 1458 1465
1425 1430 1436 1441 1447 1451 1455 1458 1462 1462 1458 1454 1457 1458 1458 1458 1456 1453 1447 1448 1454 1461 1466 1466 1463 1458 1461 1461 1459 1458 1462 1466 1474 1474 1468 1465 1452 1453 1455 1457 1462 1454 1455 1463
1421 1426 1431 1437 1441 1446 1449 1452 1456 1457 1454 1451 1454 1454 1454 1453 1452 1449 1445 1445 1450 1454 1457 1457 1462 1458 1453 1459 1455 1459 1463 1465 1465 1465 1463 1460 1452 1453 1456 1462 1464 1454 1456 1459
1416 1419 1426 1432 1437 1441 1445 1447 1450 1453 1452 1447 1449 1449 1448 1446 1446 1446 1443 1447 1449 1450 1451 1452 1454 1457 1452 1454 1447 1452 1456 1461 1465 1464 1460 1458 1449 1455 1458 1454 1454 1454 1455 1458
1412 1416 1421 1427 1432 1436 1440 1443 1445 1449 1450 1444 1441 1440 1440 1439 1440 1443 1442 1439 1439 1442 1447 1449 1447 1449 1450 1449 1452 1445 1453 1449 1454 1454 1453 1448 1450 1450 1450 1451 1452 1453 1454 1458
1409 1413 1418 1423 1427 1431 1435 1437 1442 1445 1444 1441 1438 1431 1434 1434 1433 1436 1438 1438 1437 1437 1438 1440 1439 1443 1447 1451 1450 1445 1445 1446 1450 1451 1449 1448 1449 1450 1450 1451 1452 1453 1455 1457
1405 1409 1414 1419 1423 1427 1430 1432 1436 1440 1440 1434 1427 1426 1426 1427 1428 1430 1433 1434 1435 1437 1436 1438 1438 1439 1438 1444 1441 1443 1443 1445 1449 1451 1448 1449 1448 1448 1449 1451 1452 1453 1455 1458
1403 1407 1411 1415 1419 1423 1426 1428 1430 1433 1439 1431 1426 1423 1424 1422 1425 1427 1429 1431 1433 1434 1437 1440 1439 1435 1437 1440 1440 1442 1439 1442 1449 1448 1440 1443 1443 1445 1449 1451 1452 1454 1455 1458
1401 1405 1408 1412 1415 1419 1422 1423 1423 1424 1431 1433 1426 1422 1420 1419 1421 1424 1427 1429 1431 1434 1435 1437 1435 1433 1435 1441 1442 1436 1436 1437 1438 1439 1440 1441 1442 1446 1449 1451 1453 1454 1456 1459
1399 1403 1406 1409 1412 1413 1415 1415 1415 1415 1425 1427 1426 1422 1421 1420 1422 1425 1427 1429 1431 1433 1432 1431 1431 1431 1430 1437 1441 1434 1436 1437 1438 1438 1439 1443 1445 1447 1450 1452 1454 1456 1458 1461
1398 1401 1403 1404 1407 1409 1408 1409 1409 1413 1420 1426 1424 1422 1422 1422 1422 1425 1426 1428 1432 1432 1429 1429 1429 1431 1432 1436 1433 1434 1436 1437 1438 1439 1440 1441 1444 1447 1450 1453 1455 1457 1460 1462
1396 1398 1399 1400 1402 1403 1403 1405 1410 1415 1419 1418 1420 1420 1423 1420 1421 1423 1425 1426 1430 1430 1429 1429 1431 1433 1433 1429 1430 1433 1435 1436 1438 1440 1441 1442 1444 1447 1451 1454 1456 1458 1461 1463
1394 1396 1396 1395 1394 1396 1402 1409 1410 1413 1414 1415 1414 1415 1418 1419 1420 1423 1425 1424 1430 1433 1432 1430 1433 1433 1427 1426 1428 1432 1435 1436 1438 1440 1443 1444 1446 1448 1451 1453 1457 1460 1461 1464
1391 1391 1391 1393 1396 1399 1402 1404 1407 1408 1410 1410 1412 1414 1416 1419 1420 1424 1425 1428 1431 1434 1433 1433 1435 1432 1425 1426 1429 1433 1435 1437 1440 1441 1441 1443 1446 1448 1451 1455 1458 1460 1462 1464
1389 1388 1392 1396 1397 1397 1400 1406 1406 1405 1407 1409 1411 1412 1414 1417 1418 1421 1427 1429 1433 1432 1433 1436 1439 1426 1423 1425 1429 1433 1436 1438 1441 1443 1444 1446 1448 1451 1453 1456 1458 1461 1463 1465
1390 1390 1392 1392 1398 1404 1406 1412 1407 1408 1406 1408 1409 1413 1414 1418 1420 1424 1426 1433 1435 1432 1438 1436 1429 1424 1424 1426 1429 1433 1437 1439 1442 1444 1446 1448 1450 1453 1455 1457 1459 1461 1463 1465
1393 1393 1399 1401 1408 1405 1405 1404 1405 1406 1406 1407 1409 1413 1415 1419 1422 1427 1433 1435 1434 1443 1442 1429 1427 1425 1426 1428 1431 1435 1437 1440 1442 1445 1447 1449 1451 1453 1456 1458 1460 1461 1462 1464
1393 1395 1405 1406 1406 1406 1406 1406 1406 1406 1408 1409 1411 1415 1417 1422 1427 1429 1433 1436 1440 1435 1433 1429 1427 1427 1429 1430 1433 1436 1438 1441 1443 1446 1448 1450 1452 1454 1456 1458 1460 1462 1463 1465
1400 1404 1407 1407 1406 1407 1407 1407 1408 1408 1409 1410 1412 1417 1421 1426 1427 1427 1430 1430 1434 1431 1429 1429 1429 1429 1431 1433 1435 1437 1440 1442 1444 1446 1448 1450 1452 1454 1455 1458 1459 1461 1463 1464
1405 1409 1410 1410 1410 1410 1410 1410 1410 1410 1411 1415 1416 1422 1423 1425 1428 1427 1426 1431 1430 1430 1430 1431 1431 1432 1434 1435 1437 1439 1441 1443 1445 1447 1448 1450 1451 1453 1455 1457 1458 1460 1462 1463
Wind_Speed
27 21 18 14 14 18 18 13 2 14 24 8 6 10 4 3 1 7 6 3 4 4 2 3 4 7 8 1 6 6 6 3 2 10 5 6 6 6 2 3 3 3 3 8
27 23 21 16 16 23 24 11 6 16 28 8 9 4 8 19 6 4 2 4 6 4 7 3 7 8 12 22 7 6 5 2 3 6 4 3 4 4 5 3 2 6 2 5
29 26 23 19 19 24 24 9 2 7 25 16 9 11 13 14 9 16 24 11 4 2 2 4 4 2 3 9 4 16 13 5 6 7 5 3 2 4 2 6 4 2 8 8
27 26 24 21 22 25 24 9 6 11 7 13 12 8 3 10 12 17 16 7 21 7 3 4 13 3 9 10 2 4 1 7 3 4 5 3 5 4 6 9 8 7 4 7
30 27 26 27 24 25 27 9 6 6 3 13 20 18 15 22 9 8 7 18 12 15 18 12 3 2 4 7 2 4 0 4 1 4 4 7 9 9 13 13 8 10 13 14
30 30 28 29 26 31 21 22 19 16 9 9 7 15 19 17 19 25 34 24 17 15 25 26 26 30 32 15 7 2 3 3 2 5 4 6 9 15 16 8 6 6 8 4
31 32 33 30 28 33 31 16 12 11 8 11 13 8 16 20 24 26 24 24 21 45 19 15 16 19 21 19 9 11 6 4 2 2 1 4 5 1 3 10 10 8 3 4
28 31 33 31 30 31 31 26 19 7 3 10 10 14 14 23 23 19 28 34 40 19 8 4 4 3 4 5 9 11 5 5 2 3 3 4 5 4 5 5 5 8 6 7
28 30 32 30 28 29 28 27 24 14 4 8 17 10 18 12 11 11 20 27 26 18 4 4 6 5 3 5 3 12 9 8 4 3 3 3 3 2 5 3 4 2 10 12
28 31 31 29 27 29 28 24 22 19 6 15 17 5 5 6 5 3 3 6 13 23 5 3 3 4 3 4 5 4 4 3 10 5 3 5 3 5 7 2 4 6 15 20
28 30 27 25 24 27 28 28 25 20 7 19 20 19 15 9 10 2 3 5 3 5 4 3 3 3 5 3 3 5 7 4 3 2 5 7 9 6 5 3 2 8 12 17
26 30 25 23 22 24 28 32 28 18 23 12 11 17 21 27 23 18 9 2 6 10 3 3 3 2 1 5 3 1 3 5 4 6 4 1 4 1 3 5 4 6 11 15
23 24 23 23 24 24 27 27 18 18 17 23 31 27 26 22 25 21 9 7 7 6 4 5 2 3 3 3 4 3 1 2 3 2 3 3 4 4 4 4 2 6 9 13
18 19 20 21 20 22 22 26 25 22 9 5 9 12 18 14 17 16 24 14 12 9 12 0 2 3 5 3 2 3 3 5 4 3 3 3 10 8 7 6 6 8 10 13
18 17 18 20 20 21 24 29 28 27 15 4 5 5 5 9 22 17 14 13 9 7 4 1 3 2 3 0 2 2 6 5 4 4 5 3 2 13 11 8 8 8 12 16
14 14 17 19 18 18 17 10 30 31 25 7 2 1 5 6 16 15 11 14 12 6 4 4 3 4 3 3 2 1 5 6 3 2 10 4 7 13 13 9 9 8 10 12
15 14 16 18 21 20 21 8 7 20 27 3 2 2 2 7 15 12 12 13 4 3 5 5 3 2 3 3 2 4 7 7 6 7 10 8 13 8 14 11 10 9 9 12
15 14 16 19 20 15 22 30 14 27 16 5 2 2 2 6 5 5 7 8 10 4 2 2 2 3 1 1 2 10 9 10 12 9 2 3 12 17 16 13 12 13 14 15
13 18 15 7 9 8 11 18 27 21 5 6 3 3 3 5 4 4 3 4 2 1 1 0 2 1 2 3 10 14 14 7 12 8 5 9 14 19 17 14 14 13 15 16
14 8 5 5 8 20 18 16 15 15 7 6 2 2 1 5 2 2 1 3 1 1 2 1 2 3 4 5 9 14 12 5 13 13 9 12 16 18 19 17 12 10 11 16
6 7 4 13 16 10 5 6 4 4 2 3 4 5 4 2 3 2 2 2 1 2 2 3 1 2 4 8 14 13 7 8 10 5 6 5 8 15 16 15 15 12 10 12
0 5 10 10 4 3 4 1 0 1 3 3 5 5 6 4 3 4 1 2 2 3 1 3 2 3 6 12 15 14 10 9 8 7 8 8 7 9 10 11 12 11 9 10
10 5 1 2 4 6 3 2 1 2 2 5 5 3 4 4 4 5 2 3 2 0 3 2 3 2 4 10 16 15 11 8 8 6 5 6 7 7 7 7 8 7 8 9
2 1 4 3 3 2 1 1 1 2 2 15 15 5 3 3 4 1 4 2 1 3 1 4 2 3 9 13 15 13 10 8 7 5 5 4 4 5 6 6 5 5 7 8
4 5 3 3 2 2 2 2 1 3 11 10 9 6 3 3 4 1 3 2 2 4 3 2 2 7 12 14 13 9 7 6 6 5 5 5 5 5 5 6 5 4 5 6
4 6 3 2 2 3 4 5 3 4 9 8 5 3 3 2 3 2 2 5 4 2 1 2 4 9 11 12 12 11 9 7 6 7 5 4 4 4 6 6 7 6 6 4
4 4 8 5 5 2 3 5 6 5 4 2 3 3 2 2 2 1 2 1 1 4 7 6 6 8 9 9 10 10 9 8 8 7 6 5 6 6 6 5 6 8 9 9
Wind_Direction
215 212 216 208 203 183 176 176 186 188 183 177 199 230 191 252 274 258 262 296 252 231 221 293 238 232 216 162 162 169 220 162 193 249 228 243 181 177 114 201 215 241 157 260
216 218 214 203 198 188 173 177 179 176 187 210 217 244 237 246 246 297 257 250 211 208 198 234 214 248 269 276 200 203 186 233 324 320 344 346 205 195 149 158 268 215 211 261
212 209 202 199 192 192 182 167 150 181 199 224 197 231 237 238 238 247 246 262 301 268 293 241 270 262 283 359 288 261 180 188 185 241 215 185 288 15 288 201 254 251 241 270
210 212 211 205 202 194 196 208 215 185 199 217 223 206 202 220 233 216 212 260 235 224 260 238 245 241 297 292 308 3 208 221 213 243 200 174 207 219 232 218 240 243 311 242
216 217 215 211 207 192 206 199 204 195 203 185 211 222 231 245 235 223 208 241 234 233 240 233 280 272 207 241 351 152 296 242 163 277 241 254 259 242 244 229 230 238 242 252
214 217 215 210 208 197 206 218 239 227 221 217 203 218 231 246 243 250 243 243 241 243 237 239 252 254 261 257 249 225 235 149 141 257 212 234 249 233 217 215 217 189 209 223
216 218 214 212 210 208 210 214 208 201 226 209 221 231 233 240 238 246 249 245 232 242 256 247 273 282 249 237 217 178 150 146 168 254 174 238 247 249 207 222 245 203 157 172
216 211 206 211 210 210 216 227 233 224 257 223 239 246 255 260 263 261 260 249 237 234 217 212 228 231 213 237 237 217 180 137 238 243 209 292 266 192 183 177 285 209 165 125
211 207 206 211 210 209 221 227 233 242 272 205 229 214 233 243 253 266 253 256 226 195 179 192 203 214 177 182 219 208 196 165 200 185 220 251 260 186 160 132 296 134 144 154
204 208 207 209 210 209 218 228 230 237 264 254 262 224 220 201 210 267 232 170 196 180 179 195 168 214 212 173 174 166 164 192 223 208 251 271 233 158 138 85 244 177 180 167
208 212 203 209 216 214 220 233 228 233 267 264 246 255 243 232 202 217 213 126 153 155 183 180 175 175 214 183 202 165 178 173 208 164 223 246 154 125 175 180 117 165 176 183
204 208 202 212 222 224 224 232 233 241 238 263 256 268 259 248 239 220 210 262 171 171 139 225 150 169 122 180 221 156 180 183 186 186 214 173 211 90 162 155 151 181 181 180
209 204 210 217 223 222 224 225 223 238 244 265 261 260 263 252 245 222 193 212 200 185 173 189 141 160 135 179 235 116 200 148 150 110 223 234 217 194 171 174 178 175 182 179
208 206 213 214 219 224 226 227 234 230 260 250 259 234 231 239 215 213 218 227 198 176 161 206 182 151 179 200 214 182 174 137 152 284 282 246 233 212 187 163 159 162 172 182
201 211 215 211 218 214 224 229 232 236 233 299 277 198 210 234 212 217 202 190 193 172 73 74 249 162 116 352 67 237 188 161 165 222 200 139 195 194 178 165 155 165 176 171
199 198 207 202 200 212 223 241 237 236 229 257 268 247 352 214 203 196 195 200 167 142 148 212 251 219 178 124 184 229 184 181 171 180 156 115 121 158 168 160 149 155 173 180
199 207 211 217 224 217 226 213 252 216 200 236 274 323 53 164 179 182 177 175 190 206 219 191 213 181 145 100 186 173 166 167 157 138 137 114 150 170 166 159 147 149 158 170
205 234 229 227 230 244 225 227 206 167 167 195 206 230 125 173 153 129 142 156 196 247 213 155 127 114 73 196 186 155 152 143 141 147 119 192 165 158 159 161 157 154 160 169
227 216 226 205 198 207 196 175 156 163 166 152 201 153 195 161 119 126 131 162 78 210 115 313 105 343 215 212 175 173 164 160 166 141 122 144 157 160 164 168 166 169 171 175
212 184 205 210 165 134 140 149 174 201 206 188 153 149 149 157 133 73 104 45 107 98 276 105 84 245 251 253 193 175 170 166 165 139 139 160 165 172 176 180 188 198 189 182
184 186 202 112 131 122 162 163 166 174 97 161 131 169 143 132 111 143 43 151 16 110 257 136 308 276 229 162 158 157 137 128 147 84 110 149 192 183 187 194 197 199 200 196
352 105 96 134 175 137 95 18 288 109 170 147 147 138 119 114 112 96 27 104 44 200 331 78 271 255 168 161 160 158 140 134 140 100 93 125 141 187 193 194 191 193 192 199
85 15 176 40 360 56 100 174 318 83 161 153 147 79 97 105 82 71 84 73 204 306 51 231 231 304 173 163 162 158 150 146 144 131 122 139 152 170 180 180 183 187 191 196
175 66 38 62 360 64 110 325 63 347 241 140 122 79 78 77 60 93 87 257 71 46 349 237 261 147 151 148 153 159 161 159 150 141 128 136 161 174 183 192 196 202 198 201
59 38 50 56 53 53 23 14 40 110 143 130 104 76 89 35 88 37 112 71 255 205 232 244 58 138 145 143 145 141 148 157 160 157 143 132 145 154 179 193 196 198 202 208
58 50 69 11 48 25 39 53 70 101 129 114 70 95 61 42 128 113 190 158 219 251 27 111 106 141 143 145 145 141 139 142 159 159 151 162 179 182 185 192 196 192 197 204
46 54 51 75 66 39 29 44 41 78 110 90 93 68 188 109 79 80 156 169 348 113 98 99 109 131 139 149 156 156 150 146 150 158 151 155 167 179 190 206 215 218 219 217